This demonstration page uses our WeatherBlox Daily Observations layout. Learn more.

Left ArrowRight Arrow

39.08367, -84.50855

Hourly Observations for September 18, 2017

Temp ( °F °C ) Dew Point ( °F °C ) Humidity (%) Winds ( mph kmh ) Pressure ( in mb ) Visibility ( mi km ) Precip ( " mm )
12:00 am 00:00 Clear with Fog 64 17.8 64 17.8 100 100 N N/A 30.06 1018 1 1 N/A
12:19 am 00:19 Clear with Mist and Fog 65 18.3 65 18.3 100 100 N N/A 30.06 1018 2 3 N/A
12:26 am 00:26 Clear with Mist and Fog 64 17.8 64 17.8 100 100 N N/A 30.06 1018 1 1 N/A
12:36 am 00:36 Mostly Clear with Mist and Fog 65 18.3 65 18.3 100 100 N N/A 30.06 1018 3 4 N/A
12:43 am 00:43 Mostly Clear with Mist and Fog 65 18.3 65 18.3 100 100 N N/A 30.06 1018 3 5 N/A
12:47 am 00:47 Partly Cloudy with Mist and Fog 64 18 64 18 100 100 N N/A 30.06 1018 1 1 N/A
12:53 am 00:53 Mostly Cloudy with Mist and Fog 65 18.3 65 18.3 100 100 N N/A 30.08 1019 1 1 N/A
12:57 am 00:57 Mostly Cloudy with Mist and Fog 65 18.3 65 18.3 100 100 N N/A 30.06 1018 3 4 N/A
1:04 am 01:04 Mostly Cloudy with Mist and Fog 65 18.3 65 18.3 100 100 N N/A 30.06 1018 5 8 N/A
1:53 am 01:53 Mostly Clear with Mist and Fog 65 18.3 65 18.3 100 100 N N/A 30.07 1018 3 5 N/A
1:59 am 01:59 Clear with Mist and Fog 65 18.3 65 18.3 100 100 N N/A 30.06 1018 2 2 N/A
2:07 am 02:07 Clear with Mist and Fog 64 17.8 64 17.8 100 100 N N/A 30.06 1018 1 1 N/A
2:12 am 02:12 Clear with Mist and Fog 65 18.3 65 18.3 100 100 N N/A 30.06 1018 2 3 N/A
2:22 am 02:22 Clear with Mist and Fog 64 17.8 64 17.8 100 100 N N/A 30.06 1018 1 1 N/A
2:39 am 02:39 Clear with Mist and Fog 64 17.8 64 17.8 100 100 N N/A 30.03 1017 3 4 N/A
2:51 am 02:51 Partly Cloudy with Mist and Fog 64 18 64 18 100 100 N N/A 30.03 1017 2 2 N/A
2:53 am 02:53 Partly Cloudy with Mist and Fog 64 17.8 64 17.8 100 100 N N/A 30.06 1018 2 3 N/A
3:05 am 03:05 Mostly Cloudy with Fog 64 17.8 64 17.8 100 100 N N/A 30.03 1017 1 1 N/A
3:12 am 03:12 Mostly Cloudy with Mist and Fog 64 17.8 64 17.8 100 100 N N/A 30.03 1017 2 3 N/A
3:34 am 03:34 Cloudy with Mist and Fog 64 17.8 64 17.8 100 100 N N/A 30.03 1017 4 6 N/A
3:53 am 03:53 Mostly Cloudy with Mist and Fog 65 18.3 65 18.3 100 100 N N/A 30.05 1018 5 8 N/A
4:53 am 04:53 Mostly Clear with Mist and Fog 64 17.8 64 17.8 100 100 N N/A 30.06 1018 4 6 N/A
5:19 am 05:19 Partly Cloudy with Mist and Fog 64 17.8 64 17.8 100 100 N N/A 30.03 1017 2 2 N/A
5:33 am 05:33 Mostly Clear with Fog 62 16.7 62 16.7 100 100 N N/A 30.03 1017 0 0 N/A
5:42 am 05:42 Mostly Clear with Fog 62 16.7 62 16.7 100 100 N N/A 30.03 1017 1 1 N/A
5:53 am 05:53 Mostly Cloudy with Mist and Fog 63 17.2 63 17.2 100 100 N N/A 30.06 1018 1 2 N/A
6:03 am 06:03 Mostly Clear with Mist and Fog 63 17.2 63 17.2 100 100 N N/A 30.03 1017 2 3 N/A
6:13 am 06:13 Mostly Clear with Mist and Fog 63 17.2 63 17.2 100 100 SE 3 6 30.03 1017 1 2 N/A
6:21 am 06:21 Clear with Mist and Fog 63 17.2 63 17.2 100 100 ESE 3 6 30.03 1017 3 5 N/A
6:53 am 06:53 Mostly Cloudy with Mist and Fog 64 17.8 64 17.8 100 100 N N/A 30.06 1018 5 8 N/A
7:53 am 07:53 Partly Cloudy with Mist and Fog 63 17.2 63 17.2 100 100 N N/A 30.08 1019 5 8 N/A
8:53 am 08:53 Mostly Cloudy with Mist and Fog 67 19.4 67 19.4 100 100 N N/A 30.09 1019 5 8 N/A
9:53 am 09:53 Partly Cloudy 70 21.1 67 19.4 90 90 SSE 5 7 30.09 1019 8 13 N/A
10:53 am 10:53 Mostly Cloudy 75 23.9 69 20.6 82 82 N N/A 30.09 1019 9 14 N/A
11:53 am 11:53 Mostly Cloudy 77 25 69 20.6 77 77 N N/A 30.08 1019 10 16 N/A
12:53 pm 12:53 Partly Cloudy 79 26.1 69 20.6 72 72 N N/A 30.07 1018 10 16 N/A
1:53 pm 13:53 Partly Cloudy 84 28.9 70 21.1 63 63 VRB 3 6 30.04 1017 10 16 N/A
2:53 pm 14:53 Mostly Cloudy 83 28.3 69 20.6 63 63 N N/A 30.02 1017 10 16 N/A
3:53 pm 15:53 Mostly Cloudy 82 27.8 70 21.1 67 67 N N/A 30.01 1016 10 16 N/A
4:53 pm 16:53 Mostly Sunny 82 27.8 72 22.2 72 72 N N/A 29.99 1016 10 16 N/A
5:53 pm 17:53 Mostly Sunny 81 27.2 71 21.7 72 72 VRB 5 7 29.98 1015 10 16 N/A
6:53 pm 18:53 Mostly Cloudy 78 25.6 70 21.1 76 76 N N/A 29.99 1016 10 16 N/A
7:53 pm 19:53 Cloudy 74 23.3 70 21.1 88 88 SW 5 7 30.01 1016 10 16 N/A
8:53 pm 20:53 Mostly Cloudy 72 22.2 70 21.1 94 94 SW 3 6 30.01 1016 8 13 N/A
9:53 pm 21:53 Clear with Mist and Fog 70 21.1 70 21.1 100 100 N N/A 30.01 1016 6 10 N/A
10:53 pm 22:53 Clear with Mist and Fog 70 21.1 70 21.1 100 100 N N/A 30.01 1016 5 8 N/A
11:26 pm 23:26 Clear with Mist and Fog 69 20.6 69 20.6 100 100 N N/A 30.00 1016 2 3 N/A
11:50 pm 23:50 Clear with Mist and Fog 68 20 68 20 100 100 N N/A 29.97 1015 3 5 N/A
11:53 pm 23:53 Clear with Mist and Fog 68 20 68 20 100 100 N N/A 30.00 1016 3 5 N/A
11:58 pm 23:58 Clear with Mist and Fog 67 19.4 67 19.4 100 100 N N/A 29.97 1015 2 3 N/A

Powered by AerisWeather